Regional Weather Roundup
Issued by NWS Grand Forks, ND

Home | Current Version | Previous Version | Text Only | Print | Product List | Glossary Off
Versions: 1 2 3 4 5 6 7 8 9 10 11 12 13 14 15 16 17 18 19 20 21 22 23 24 25 26 27 28 29 30 31 32 33 34 35 36 37 38 39 40 41 42 43 44 45 46 47 48 49 50

000
ASUS43 KFGF 290031
RWRFGF
PRAIRIE TO PINES  WEATHER ROUNDUP
NATIONAL WEATHER SERVICE EASTERN NORTH DAKOTA/GRAND FORKS ND
700 PM CDT WED JUN 28 2017

 **SATELLITE DATA USED TO AUGMENT SKY COVER AT AUTOMATED STATIONS**
 *****  WEATHER ACROSS EASTERN NORTH DAKOTA  *****

CITY           SKY/WX    TMP DP  RH WIND       PRES   REMARKS
GRAND FORKS    PTSUNNY   69  64  84 N10       29.61S
6HR MIN TEMP:  61; 6HR MAX TEMP:  69; 6HR PCP:  0.02;

GRAND FRKS AFB FAIR      67  63  85 N6        29.63R
DEVILS LAKE    FAIR      75  54  47 N12       29.66R
6HR MIN TEMP:  69; 6HR MAX TEMP:  76;

FARGO          CLOUDY    70  63  78 N15       29.60R
WAHPETON ARPT  FAIR      70  59  68 NW15G23   29.61R
$$

 ***** WEATHER ACROSS CENTRAL AND WESTERN NORTH DAKOTA  *****

CITY           SKY/WX    TMP DP  RH WIND       PRES   REMARKS
BISMARCK       FAIR      81  47  30 N10       29.69R
6HR MIN TEMP:  75; 6HR MAX TEMP:  82;

MINOT          FAIR      79  45  29 NW9       29.69R
6HR MIN TEMP:  75; 6HR MAX TEMP:  82;

JAMESTOWN      FAIR      77  51  40 N16       29.65R
6HR MIN TEMP:  73; 6HR MAX TEMP:  78;

MINOT AFB      FAIR      81  46  29 N12       29.68R
GARRISON         N/A     79  43  27 VRB7      29.70R
WILLISTON      FAIR      70  53  54 CALM      29.73F
6HR MIN TEMP:  67; 6HR MAX TEMP:  85; 6HR PCP: TRACE;

DICKINSON      FAIR      78  34  20 NE7       29.73R
6HR MIN TEMP:  77; 6HR MAX TEMP:  84;

HETTINGER      FAIR      80  31  16 NE8       29.74S
6HR MIN TEMP:  77; 6HR MAX TEMP:  85;

$$

 *****  OTHER AIRPORT OBSERVATIONS IN OUR AREA  *****

CITY           SKY/WX    TMP DP  RH WIND       PRES   REMARKS
WALHALLA       NOT AVBL
GRAFTON AIRPOR FAIR      68  64  88 NE5       29.66R
VALLEY CITY AR FAIR      72  66  83 N12       29.66R
CANDO          NOT AVBL
CAVALIER APRT  FAIR      68  63  83 NE3       29.63S
GWINNER        CLOUDY    75  61  60 N14       29.63S
SHEYENNE NWR     N/A     74  62  64 N13       29.95S
ROLLA            N/A     73  50  43 N15G22    29.69R
 ***** THE ABOVE OBSERVATIONS ARE NON NWS ARE NOT QUALITY
       CONTROLLED AND MAY MIS-REPORT RAIN FOR SNOW...
$$

  *****  WEATHER ACROSS NORTHERN MINNESOTA  *****

CITY           SKY/WX    TMP DP  RH WIND       PRES   REMARKS
FLAG ISLAND    RAIN      61  57  88 N9        29.64R
WARROAD        RAIN      61  55  82 N7        29.65R
ROSEAU         LGT RAIN  61  55  82 NE7       29.64R
HALLOCK        CLOUDY    66  63  88 NE5       29.64R
THF RVR FALLS  PTSUNNY   61  59  94 N7        29.64R
6HR MIN TEMP:  59; 6HR MAX TEMP:  61; 6HR PCP:  1.16;

BAUDETTE       LGT RAIN  62  61  96 N7        29.62R FOG
6HR MIN TEMP:  58; 6HR MAX TEMP:  62; 6HR PCP:  0.20;

WASKISH        LGT RAIN  63  61  94 N6        29.60R
CROOKSTON      CLOUDY    63  63 100 N12       29.63R
STEPHEN NDAWN    N/A    N/A N/A N/A NE8         N/A
GREENBUSH NDAW   N/A     61  61 100 N3          N/A
$$
  *****  WEATHER ACROSS CENTRAL AND WEST MINNESOTA  *****

CITY           SKY/WX    TMP DP  RH WIND       PRES   REMARKS
FOSSTON        LGT RAIN  57  57 100 NW9       29.62R
BEMIDJI        RAIN      60  59  98 NW6       29.57R
PARK RAPIDS    LGT RAIN  63  58  83 N12       29.55R
6HR MIN TEMP:  63; 6HR MAX TEMP:  66; 6HR PCP:  0.23;

ELBOW LAKE     MOCLDY    69  62  78 W22       29.60S
6HR MIN TEMP:  68; 6HR MAX TEMP:  71;

WADENA         CLOUDY    66  63  88 NW13G21   29.55R
DETROIT LAKES  CLOUDY    63  59  88 NW15G21   29.61R
MOORHEAD       PTSUNNY   70  61  73 N14       29.62R
FERGUS FALLS   PTSUNNY   70  61  73 NW18G24   29.58R
MORRIS MN      FAIR      75  61  60 NW20G26   29.59R HAZE
STAPLES        CLOUDY    64  63  94 W12       29.54R
$$
  *****  WEATHER ELSEWHERE ACROSS MINNESOTA  *****

CITY           SKY/WX    TMP DP  RH WIND       PRES   REMARKS
DULUTH         LGT RAIN  57  57 100 E12       29.51F VSB 3/4
6HR MIN TEMP:  54; 6HR MAX TEMP:  57; 6HR PCP:  0.51;

INTRNTL FALLS  LGT RAIN  61  58  90 E10       29.60R
6HR MIN TEMP:  60; 6HR MAX TEMP:  63; 6HR PCP:  0.07;

ELY            DRIZZLE   57  55  94 E6        29.58F
CLOQUET        RAIN      57  55  94 E8        29.51S
WHEATON        PTSUNNY   73  61  64 NW10G18   29.62R
BRAINERD       LGT RAIN  64  63  96 W10       29.52R FOG
6HR MIN TEMP:  64; 6HR MAX TEMP:  68; 6HR PCP:  0.10;

HIBBING        CLOUDY    58  58 100 E7        29.53S
6HR MIN TEMP:  57; 6HR MAX TEMP:  59; 6HR PCP:  0.42;

ALEXANDRIA     CLOUDY    67  60  78 NW17      29.59R
6HR MIN TEMP:  67; 6HR MAX TEMP:  74;

SAINT CLOUD    PTSUNNY   74  63  68 W12       29.52R
6HR MIN TEMP:  69; 6HR MAX TEMP:  76; 6HR PCP: TRACE;

MINNEAPOLIS    FAIR      79  62  56 W17       29.53R
6HR MIN TEMP:  74; 6HR MAX TEMP:  83; 6HR PCP:  0.15;

$$

  *****  WEATHER ACROSS SOUTH DAKOTA  *****

CITY           SKY/WX    TMP DP  RH WIND       PRES   REMARKS
SIOUX FALLS    FAIR      84  63  49 NW9       29.62S
6HR MIN TEMP:  79; 6HR MAX TEMP:  86;

BROOKINGS      FAIR      81  58  45 NW12      29.63R
WATERTOWN      FAIR      78  54  43 NW13G24   29.63R
6HR MIN TEMP:  75; 6HR MAX TEMP:  80;

HURON          FAIR      86  41  20 NW17      29.63R
6HR MIN TEMP:  80; 6HR MAX TEMP:  88;

SISSETON         N/A     77  63  61 N18G25    29.60R
ABERDEEN       FAIR      81  41  24 N14       29.63S
6HR MIN TEMP:  76; 6HR MAX TEMP:  85;

MITCHELL       FAIR      87  51  28 NW12      29.63S
PIERRE         FAIR      84  37  18 NW7       29.66S
6HR MIN TEMP:  79; 6HR MAX TEMP:  86;

MOBRIDGE       FAIR      85  35  16 N10       29.66R
RAPID CITY     FAIR      66  57  72 E9        29.76R
6HR MIN TEMP:  65; 6HR MAX TEMP:  83; 6HR PCP:  0.09;

$$

  *****  SOME WEATHER IN NEARBY STATES *****

CITY           SKY/WX    TMP DP  RH WIND       PRES   REMARKS
GLASGOW MT     FAIR      76  45  33 SE18      29.68R
6HR MIN TEMP:  67; 6HR MAX TEMP:  79;

GREAT FALLS MT FAIR      74  31  20 NW22G31   29.75S
6HR MIN TEMP:  73; 6HR MAX TEMP:  80;

CHEYENNE WY    FAIR      80  35  19 N12       29.90R
6HR MIN TEMP:  75; 6HR MAX TEMP:  85; 6HR PCP: TRACE;

SCOTTSBLUFF NE FAIR      83  46  27 CALM      29.74S
6HR MIN TEMP:  78; 6HR MAX TEMP:  87; 6HR PCP: TRACE;

OMAHA NE       FAIR      90  64  42 W13       29.63S HX  91
6HR MIN TEMP:  84; 6HR MAX TEMP:  93;

DES MOINES IA  CLOUDY    73  67  81 S10       29.66S
6HR MIN TEMP:  70; 6HR MAX TEMP:  86; 6HR PCP:  0.61;

DAVENPORT IA   NOT AVBL
CHICAGO IL     PTSUNNY   79  61  53 S20G28    29.76F
6HR MIN TEMP:  65; 6HR MAX TEMP:  80; 6HR PCP: TRACE;

EAU CLAIRE WI  PTSUNNY   69  67  93 S13       29.55S
6HR MIN TEMP:  67; 6HR MAX TEMP:  74; 6HR PCP:  0.06;

LA CROSSE WI   FAIR      75  66  73 S13       29.58F
6HR MIN TEMP:  72; 6HR MAX TEMP:  75; 6HR PCP:  0.04;

$$

  *****  SOME NATIONAL WEATHER *****

CITY           SKY/WX    TMP DP  RH WIND       PRES   REMARKS
LA GUARDIA NY  MOCLDY    79  49  34 W8        30.07F
6HR MIN TEMP:  76; 6HR MAX TEMP:  81;

RALEIGH NC     FAIR      79  54  41 S6        30.18R
6HR MIN TEMP:  79; 6HR MAX TEMP:  83;

ATLANTA GA     FAIR      82  63  52 S8        30.12R
6HR MIN TEMP:  82; 6HR MAX TEMP:  87;

NEW ORLEANS LA CLOUDY    77  71  82 SE8       29.98S
6HR MIN TEMP:  77; 6HR MAX TEMP:  85;

OKLAHOMA CITY  FAIR      86  66  51 S20G31    29.80S
6HR MIN TEMP:  86; 6HR MAX TEMP:  92;

ALBUQUERQUE NM FAIR      94   5   3 W16       29.92F
6HR MIN TEMP:  85; 6HR MAX TEMP:  95;

SALT LAKE CITY FAIR      90  29  11 NW14G22   29.80F
6HR MIN TEMP:  86; 6HR MAX TEMP:  91;

LOS ANGELES CA FAIR      69  60  73 W13       29.86F
6HR MIN TEMP:  69; 6HR MAX TEMP:  72;

BOISE ID       FAIR



USA.gov is the U.S. government's official web portal to all federal, state and local government web resources and services.